This is the latest recevied weather packets stored in our database for station/object IZ4MEH-10. If no packets are shown the sender has not sent any weather packets the latest 10 day(s).
| Time | Temp. | Humidity | Pressure | Rain* | Wind** | Luminosity | Snow |
|---|---|---|---|---|---|---|---|
| 1787845727 | 35° C | 45% | 1013.3 hPa | - | - | - | - |
| 1787840324 | 35.56° C | 45% | 1013.4 hPa | - | - | - | - |
| 1787802506 | 25° C | 65% | 1014.2 hPa | - | - | - | - |
| 1787800706 | 25.56° C | 65% | 1014.6 hPa | - | - | - | - |
| 1787798905 | 25.56° C | 65% | 1014.2 hPa | - | - | - | - |
| 1787797104 | 26.67° C | 60% | 1014 hPa | - | - | - | - |
| 1787795306 | 26.67° C | 64% | 1013.8 hPa | - | - | - | - |
| 1787786299 | 27.78° C | 62% | 1014.4 hPa | - | - | - | - |
| 1787770091 | 31.11° C | 52% | 1013.5 hPa | - | - | - | - |
| 1787768290 | 31.67° C | 49% | 1013.2 hPa | - | - | - | - |
| 1787764689 | 33.33° C | 45% | 1012.2 hPa | - | - | - | - |
| 1787761087 | 34.44° C | 42% | 1012.3 hPa | - | - | - | - |
| 1787755684 | 36.11° C | 39% | 1012.7 hPa | - | - | - | - |
| 1787750282 | 35° C | 40% | 1013.1 hPa | - | - | - | - |
| 1787746682 | 34.44° C | 42% | 1013.5 hPa | - | - | - | - |
| 1787743078 | 34.44° C | 42% | 1014.1 hPa | - | - | - | - |
| 1787741277 | 44.44° C | 27% | 1014.2 hPa | - | - | - | - |
| 1787739476 | 43.33° C | 28% | 1014.6 hPa | - | - | - | - |
| 1787737676 | 42.22° C | 30% | 1014.6 hPa | - | - | - | - |
| 1787735875 | 41.67° C | 31% | 1014.8 hPa | - | - | - | - |
| 1787734074 | 40.56° C | 31% | 1014.8 hPa | - | - | - | - |
| 1787732273 | 41.67° C | 31% | 1014.6 hPa | - | - | - | - |
| 1787719667 | 23.33° C | 69% | 1013.7 hPa | - | - | - | - |
* Rain since midnight (hover to see other rain measurements)
** Current wind speed in m/s (hover to see current wind gust speed)